Regional Weather Roundup
Issued by NWS

Home | Current Version | Previous Version | Text Only | Print | Product List | Glossary On
Versions: 1 2 3 4 5 6 7 8 9 10 11 12 13 14 15 16 17 18 19 20 21 22 23 24 25 26 27 28 29 30 31 32 33 34 35 36 37 38 39 40 41 42 43 44 45 46 47 48 49 50
000
ASHW40 PHFO 140512
RWRHI

WEATHER ROUNDUP FOR HAWAII
NATIONAL WEATHER SERVICE HONOLULU HI
700 PM HST WED DEC 13 2017

THIS IS AN AUTOMATED REPORT THAT HAS NOT BEEN QUALITY CONTROLLED.

NOTE..."FAIR" INDICATES FEW OR NO CLOUDS BELOW 12,000 FEET WITH NO
SIGNIFICANT WEATHER AND/OR OBSTRUCTIONS TO VISIBILITY.

* - THESE SITES REPORT LIMITED FIELDS
# - BUOY DATA PROVIDED BY PACIFIC ISLANDS OCEAN OBSERVING SYSTEM.

HIZ001>004-140600-
KAUAI-NIIHAU-

CITY           SKY/WX    TMP DP  RH WIND       PRES   REMARKS
LIHUE APT      MOCLDY    65  58  78 N12       30.07S
PORT ALLEN*      N/A     72 N/A N/A NE15G23     N/A
POIPU*           N/A     70 N/A N/A NE5G10      N/A
PRINCEVILLE*   NOT AVBL
KOKOLE POINT*  NOT AVBL
MOLOAA DAIRY*    N/A     68  57  68 NE2G10      N/A
WAIMEA HTS*    NOT AVBL
PUU OPAE*      NOT AVBL
PUU LUA*       NOT AVBL
MAKAHA RIDGE*  NOT AVBL
$$

HIZ005>011-140600-
OAHU-

CITY           SKY/WX    TMP DP  RH WIND       PRES   REMARKS
HONOLULU       PTCLDY    73  56  54 N7        30.04R
KALAELOA       PTCLDY    70  58  65 NE6       30.06R
KANEOHE MCB    PTCLDY    72  60  66 NE17G24   30.03R
WHEELER FIELD  FAIR      66  58  76 N9        30.08R
BELLOWS*       NOT AVBL
KAHUKU*        NOT AVBL
WHEELER*       NOT AVBL
WAIANAE HARBOR NOT AVBL
DILLINGHAM*    NOT AVBL
KAHUKU TRN*      N/A     73  63  68 SW7G18      N/A
KAWAILOA*        N/A     63  55  77 NE6G16      N/A
KII*             N/A     72  59  64 NE14        N/A
MAKUA RANGE*     N/A     70  55  60 W15G28      N/A
OAHU FOREST NW NOT AVBL
SCHOFIELD BRK*   N/A     72  63  73 MISG        N/A
SCHOFIELD S*   NOT AVBL
WAIANAE VLY*   NOT AVBL
KUAOKALA*      NOT AVBL
HONOULIUULI*   NOT AVBL
MOKUOLOE IS*   NOT AVBL
PALEHUA*       NOT AVBL
WAIAWA PHB*    NOT AVBL
$$

HIZ012>013-140600-
MOLOKAI-

CITY           SKY/WX    TMP DP  RH WIND       PRES   REMARKS
MOLOKAI AIRPT  PTCLDY    69  60  73 N10       30.04R
KALAUPAPA      NOT AVBL
MAKAPULAPAI*   NOT AVBL
MOLOKAI 1*     NOT AVBL
PUU ALII*      NOT AVBL
$$

HIZ016-140600-
KAHOOLAWE-

CITY           SKY/WX    TMP DP  RH WIND       PRES   REMARKS
KAHOOLAWE*     NOT AVBL
HAKIOAWA*      NOT AVBL
HONOKANAIA*    NOT AVBL
KANELOA*         N/A     70  59  68 N21G36    30.01F
KEALIALALO*    NOT AVBL
LUA MAKIKA*    NOT AVBL
$$

HIZ014>015-140600-
LANAI-

CITY           SKY/WX    TMP DP  RH WIND       PRES   REMARKS
LANAI CITY     FAIR      65  57  75 NE24G31   30.04R
LANAI 1*       NOT AVBL
$$

HIZ017>028-140600-
MAUI-

CITY           SKY/WX    TMP DP  RH WIND       PRES   REMARKS
KAHULUI        MOCLDY    73  60  63 N17       30.02R
KAPALUA-W MAUI NOT AVBL
HANA AIRPORT   LGT RAIN  66  66 100 SW9       30.06R
HANA*            N/A     68 N/A N/A W3          N/A
HALEAKALA SUMM   N/A     39 -13  10 NW24        N/A  WCI  28
MAALAEA BAY*   NOT AVBL
HALEAKALA*     NOT AVBL
KAUPO GAP*     NOT AVBL
KULA 1*          N/A     48   9  20 NE5         N/A
$$

HIZ023>026-140600-
BIG ISLAND OF HAWAII COAST AND LOWER SLOPES-

CITY           SKY/WX    TMP DP  RH WIND       PRES   REMARKS
KAILUA KONA    PTCLDY    77  58  51 NE10      29.94R
HILO           LGT RAIN  69  66  90 N12       30.00S
HONOKAA*         N/A     64 N/A N/A VRB1        N/A
KAWAIHAE MWT*    N/A     79 N/A N/A NE9G22      N/A
KAWAIHAE*      NOT AVBL
SOUTH POINT*     N/A     68 N/A N/A N2          N/A
UPOLU AIRPORT* NOT AVBL
KAMUELA*       MOCLDY    61  57  88 NE15      30.07R
HAKALAU*         N/A     45  41  87 SW6         N/A
KALOKO-HONOKO* NOT AVBL
PALI 2*          N/A     63  57  82 S13G22      N/A
KEALAKOMO*       N/A     73  63  68 N24G40      N/A
KAUPULEHU*     NOT AVBL
KAPAPALA*        N/A     65  63  94 CALM        N/A
LOWER KAHUKU*  NOT AVBL
PUHE CS*       NOT AVBL
PUHO CS*       NOT AVBL
PTA KEAMUKU*     N/A     57  57 100 NE18G25     N/A
WAIKOLOA*      NOT AVBL
$$

HIZ027>028-140600-
BIG ISLAND OF HAWAII INTERIOR AND SUMMMITS-

CITY           SKY/WX    TMP DP  RH WIND       PRES   REMARKS
BRADSHAW FIELD CLEAR     48  37  64 SE6       30.26S
MK VISITOR CEN   N/A     43   9  24 NW6         N/A
MAUNA KEA*       N/A     27 -20  12 W43         N/A  WCI   8
MAUNA LOA*     NOT AVBL
MAUNA LOA 1*   NOT AVBL
PTA KIPUKA*      N/A    N/A N/A N/A NW5         N/A
PTA RANGE 17*    N/A     55  48  76 NW3         N/A
PTA WEST*        N/A     57  52  82 SE12        N/A
NENE CABIN*    NOT AVBL
AHUMOA*        NOT AVBL
PTA PORTABLE*  NOT AVBL
PUU MALI*        N/A     45  36  70 SE3G13      N/A
$$

HIC003-140600-
NORTHWEST ISLANDS-

CITY           SKY/WX    TMP DP  RH WIND       PRES   REMARKS
MIDWAY ISLAND  CLOUDY    72  61  68 S8        30.16R
MIDWAY NOS*    NOT AVBL
FRENCH FRIGATE NOT AVBL
$$

PHZ110>124-180-140600-
BUOY REPORTS

STATION/POSITION TIME  TEMP    WIND        PRES    WAVE   SWELL
                       AIR SEA DIR/SP/G            HT/PER HT/DIR
                 (UTC) (F)     (DEG/KT/KT) (MB)    (FT/S) (FT/D)
BUOY 51001       0450   70 75   40/ 16/ 19 1020.9R  14/12  13
BUOY 51101       0450   69 75   40/ 17/ 23 1021.0R  14/11  13/330
BUOY 51100       NOT AVBL
BUOY 51002       0450   77 78   40/ 16/ 17 1013.8R  11/17  10/340
BUOY 51003       0450   74 78   40/ 19/ 21 1015.7R  15/16  15/330
BUOY 51004       0450   75 79  350/ 14/ 17 1014.2R  12/15  11/320
WAIMEA BAY#      0402      75                N/A    17/15  15/320
MOKAPU POINT#    0434      77                N/A    10/17   8/350
LANAI#           NOT AVBL
BARBERS PT 2#    NOT AVBL
PAUWELA#         0430      78                N/A    15/15  13/310
HILO#            0457      77                N/A    12/17  10/340
KANEOHE BAY#     NOT AVBL
KANEOHE BAY 2#   NOT AVBL
HANALEI#         0422      77                N/A    17/15  15/310
KAHULUI HARBOR   0436   74 77   10/ 15/ 19 1016.5R
HONOLULU HARBOR  0448   71 77   20/  3/  5 1017.9R
PEARL HARBOR#    0430      77                N/A     1/ 9
KILO NALU        NOT AVBL
HILO HARBOR      0436   70 75  330/ 12/ 15 1015.6R
MOKUOLOE         0436   72 75   30/ 13/ 16 1017.6R
NAWILIWILI       0436   69 78  310/  5/ 11 1018.2R
WHOTS BUOY       NOT AVBL
BUOY 51028       NOT AVBL
$$

......................KEY........................................
  SKY/WX - SKY CONDITIONS/PRESENT WEATHER
  TMP    - TEMPERATURE IN FAHRENHEIT
  DWPT   - DEWPOINT IN FAHRENHEIT
  RH     - RELATIVE HUMIDITY IN PERCENT
  WIND   - DIRECTION AND SPEED /MPH FOR ISLANDS...KTS FOR BUOYS/
  PRES   - MEAN SEA LEVEL PRESSURE IN INCHES OF HG
  VSB    - VISIBILITY IN MILES
  HX     - HEAT INDEX
  WCI    - WIND CHILL INDEX
  VRB    - VARIABLE WIND DIRECTION
  N/A    - NOT AVAILABLE



USA.gov is the U.S. government's official web portal to all federal, state and local government web resources and services.